Theta_e
323 328 339 349 340 340 343 345 343 343 350 349 347 340 338 346 344 333 331 326 326 328 332 337 339 338 339 339 339 341 341 340
324 327 342 347 344 338 344 343 342 343 348 343 342 341 343 348 347 344 343 328 326 327 330 333 337 339 340 339 339 340 339 334
324 331 343 341 346 344 345 344 343 346 351 345 341 339 344 347 347 348 349 331 327 327 328 329 332 334 336 337 336 334 333 332
320 331 341 343 348 345 345 344 343 348 351 347 341 341 343 345 348 351 349 335 333 329 328 328 329 330 331 331 331 331 330 330
319 323 338 344 345 345 345 343 345 346 352 345 341 341 341 344 352 352 346 338 336 333 330 329 329 329 330 331 331 330 330 331
319 322 340 337 338 341 345 343 341 343 345 349 343 341 339 344 348 345 344 333 334 334 332 331 332 332 332 330 329 331 334 335
320 336 339 337 337 342 342 343 340 340 342 343 342 341 337 338 342 347 346 340 332 335 333 331 331 330 329 329 334 332 329 326
321 337 335 336 337 343 341 345 343 342 340 340 340 338 336 336 336 344 344 343 340 339 335 339 336 329 330 333 327 325 321 325
323 327 333 335 338 340 339 339 345 345 344 339 338 336 335 335 336 337 341 342 341 340 340 341 341 332 330 326 330 331 330 335
323 325 328 326 338 339 338 341 340 336 341 341 340 337 335 334 336 337 339 340 341 339 340 341 341 336 337 333 332 334 333 332
320 320 325 326 332 339 340 337 336 339 338 341 339 338 336 335 336 336 336 339 340 339 340 340 336 339 339 335 333 333 333 333
319 319 321 325 334 338 337 338 339 339 336 338 339 338 336 335 334 333 333 338 338 336 339 337 337 336 336 332 333 335 335 336
322 321 321 323 323 329 338 338 340 342 341 340 339 338 337 337 333 332 331 336 337 336 335 339 338 335 335 337 336 338 337 335
320 321 319 322 320 323 336 337 338 340 340 339 338 339 339 339 340 338 331 336 338 338 335 336 339 338 338 339 338 337 335 333
321 321 321 320 320 323 332 337 338 337 337 339 340 343 343 342 341 342 341 339 339 339 339 338 339 339 340 338 335 334 332 330
320 321 320 322 322 323 324 327 337 334 339 347 346 341 340 341 339 340 341 346 340 342 341 342 341 342 339 336 333 331 330 329
323 325 323 322 323 325 325 328 330 340 341 349 347 339 337 335 339 334 340 344 351 343 344 342 344 341 337 335 333 332 330 329
324 326 325 324 325 328 326 327 329 347 343 342 344 342 336 338 334 334 334 343 347 348 346 346 345 341 337 335 335 331 329 329
324 323 322 327 326 327 325 325 342 346 344 340 338 341 338 334 330 331 336 343 342 341 342 343 342 340 338 336 332 330 327 326
323 321 321 325 323 324 324 324 337 342 345 339 336 335 339 343 338 335 335 339 338 339 338 338 339 339 336 334 333 327 323 321
Wind_Speed
4 3 5 6 7 7 5 12 9 5 9 5 6 13 12 38 29 27 23 22 21 19 18 18 17 16 14 12 10 9 7 5
2 7 4 7 13 3 5 9 19 17 7 5 19 12 24 33 25 24 20 21 21 19 18 17 16 15 13 11 9 7 5 4
3 5 2 6 18 11 15 9 17 20 12 6 10 27 33 31 28 30 25 23 22 20 18 17 16 15 12 10 8 6 4 3
5 2 5 4 19 17 20 20 16 17 12 5 22 24 23 22 33 34 28 26 22 19 18 17 15 14 12 10 8 7 5 4
10 7 3 9 18 10 7 28 12 14 9 9 12 21 21 23 38 29 24 24 21 20 18 16 15 14 12 10 9 7 6 5
9 9 4 2 9 20 20 8 6 18 7 13 18 25 22 28 30 26 23 20 21 19 18 17 15 14 12 11 9 8 6 6
13 4 6 6 6 4 10 15 26 4 17 22 31 26 20 21 29 30 24 20 18 17 18 16 15 14 13 12 10 9 9 8
14 2 4 3 11 15 14 17 26 11 17 26 29 26 25 21 18 29 30 27 21 20 19 20 17 17 14 13 13 12 12 7
17 5 9 7 20 5 19 14 6 10 5 5 16 21 22 25 26 28 34 33 27 25 24 26 23 20 18 16 15 13 12 8
14 4 5 7 15 7 10 5 13 9 13 6 10 11 18 21 28 27 31 33 34 26 28 31 23 23 20 20 16 16 17 13
12 10 5 2 11 9 7 13 12 7 18 9 7 14 24 30 31 28 26 31 32 29 20 30 21 23 19 18 21 21 17 15
10 11 6 3 19 14 15 17 12 15 15 12 11 17 18 24 29 29 28 31 33 28 23 23 17 21 23 21 18 16 15 12
6 7 5 4 6 9 22 17 20 18 19 21 20 20 18 26 35 31 29 28 31 27 24 21 16 18 16 15 12 15 13 9
8 10 10 4 9 10 23 17 15 21 21 22 24 19 22 42 34 24 25 29 29 25 23 20 18 15 12 7 6 13 9 10
13 13 8 8 9 9 17 19 15 14 16 19 5 18 21 34 26 32 30 21 25 24 23 21 19 14 11 12 14 17 14 13
11 11 12 7 7 9 10 10 22 17 14 22 20 16 24 27 25 10 22 24 16 24 23 18 17 17 16 15 15 12 9 6
11 5 8 9 7 10 9 4 7 18 19 18 21 17 28 38 39 43 14 6 15 25 20 15 17 18 19 14 10 4 3 4
8 10 4 9 7 3 5 6 6 18 15 17 14 12 15 33 46 42 31 3 3 11 19 21 19 14 14 10 7 5 4 4
8 12 6 4 1 3 10 5 17 16 16 12 18 16 12 13 17 21 18 2 14 21 20 14 13 12 13 11 11 7 2 2
12 7 4 3 5 6 8 10 14 16 19 17 19 15 13 14 13 14 18 11 14 17 19 16 14 13 14 12 8 7 4 1
Wind_Direction
165 196 192 157 223 202 273 303 140 102 107 69 98 121 121 138 135 134 139 144 143 142 141 142 147 148 149 150 149 144 141 131
96 274 261 185 212 239 274 311 112 113 75 90 149 133 136 138 128 136 144 149 148 147 145 143 148 151 153 155 156 153 155 140
308 247 170 44 38 313 318 279 107 111 108 76 106 134 141 141 140 149 150 155 154 153 152 151 155 156 158 160 161 161 163 154
276 87 203 66 85 288 330 306 124 114 118 106 132 141 150 155 145 157 149 154 155 156 159 157 160 159 161 166 165 167 164 159
294 306 156 158 157 177 241 276 131 134 123 145 133 146 161 147 148 146 144 152 156 160 161 161 163 161 162 162 163 162 162 164
282 296 281 198 161 131 182 316 23 133 148 157 153 164 175 143 142 140 139 150 159 163 165 167 164 164 164 165 164 163 165 167
275 287 223 180 98 27 347 3 341 164 133 139 154 170 153 140 142 145 149 151 159 165 170 167 170 169 168 167 165 162 157 156
267 190 223 217 118 138 94 1 288 27 106 140 159 160 149 167 166 151 158 163 159 163 164 168 173 172 169 168 162 151 147 136
275 220 193 210 153 117 132 184 197 272 163 240 166 163 164 182 171 170 169 170 171 176 170 173 182 167 160 162 160 158 156 141
265 247 200 344 149 102 142 223 138 265 248 164 281 180 177 179 177 178 173 173 175 177 176 180 185 173 161 167 163 166 170 198
277 296 223 163 88 125 122 196 177 188 270 188 248 205 187 178 178 173 167 159 170 167 136 171 179 174 174 173 177 183 198 195
269 288 312 187 133 122 202 195 175 141 230 274 292 236 170 162 155 161 158 158 161 168 145 149 156 160 163 169 171 177 184 179
298 259 262 285 297 161 179 198 162 133 229 254 257 237 160 142 153 159 160 161 166 171 175 169 151 154 154 143 155 167 165 151
272 263 256 155 261 284 168 173 184 180 193 214 231 235 86 71 47 34 158 162 162 172 181 187 187 173 157 152 144 157 143 124
271 252 203 171 236 253 151 178 194 192 220 214 173 87 74 89 61 20 15 161 168 179 183 186 191 191 172 163 132 131 135 133
255 264 175 194 214 246 262 222 202 207 61 104 101 112 98 98 89 25 340 337 183 178 180 169 175 164 149 143 127 128 124 119
282 303 144 195 209 247 269 228 169 91 97 106 104 119 120 135 143 164 212 265 330 153 170 163 152 141 137 121 121 134 214 251
308 337 90 200 224 226 277 293 136 112 108 121 113 127 123 135 159 178 187 149 306 152 170 182 182 165 136 128 133 172 192 275
294 312 325 140 303 283 293 326 105 107 107 94 115 128 116 133 146 160 156 153 111 108 115 120 136 132 129 133 122 120 141 285
289 322 278 131 252 251 242 252 104 103 115 123 125 125 123 133 160 169 184 126 116 110 107 115 121 108 109 113 130 137 146 334